Wind_Speed
26 26 27 28 30 31 33 35 36 38 38 38 38 37 36 35 35 34 34 34 35 36 37 39 39 40 41 42 44 45 46 47 47 48 48 49 49 50 50 51 51 51 51
30 30 30 31 33 34 35 35 36 36 36 36 36 36 36 35 35 36 36 36 37 37 38 40 42 43 44 45 47 48 50 51 51 52 52 52 52 52 52 53 53 53 52
32 33 34 35 36 37 36 36 35 35 35 34 34 34 35 35 36 37 37 38 39 40 41 43 45 47 49 51 52 53 54 55 56 57 58 58 58 58 57 56 56 55 55
34 35 37 38 38 38 37 36 35 34 34 34 34 34 35 36 37 38 40 41 43 45 46 48 50 52 54 56 58 59 60 61 61 62 63 63 63 64 63 62 61 60 60
35 37 39 39 38 37 36 36 35 36 36 36 36 37 37 38 40 42 44 46 49 51 53 55 57 59 60 62 64 65 66 67 67 67 67 67 67 67 68 68 67 66 65
37 39 40 40 39 38 37 37 37 38 39 39 39 40 41 42 45 47 49 52 54 56 59 61 63 65 66 67 68 70 71 72 73 73 73 72 72 72 72 72 72 71 71
39 40 41 40 39 39 39 39 40 41 42 43 44 44 46 48 51 53 56 59 61 63 65 66 68 70 71 72 73 75 75 76 77 78 79 79 78 78 78 78 77 77 76
41 42 41 41 41 41 42 42 43 44 45 48 50 51 52 53 56 59 62 64 66 68 69 70 72 73 75 76 78 79 80 81 81 81 82 83 84 85 85 84 84 83 83
41 41 42 42 42 43 44 45 46 48 50 52 56 59 62 64 65 65 67 68 70 71 73 74 75 77 78 79 80 82 83 84 85 86 86 87 88 90 91 91 91 90 89
41 41 42 42 43 44 45 47 50 53 55 58 61 65 69 73 75 74 72 73 74 75 76 78 79 80 81 83 83 84 86 87 89 90 91 92 93 94 95 96 97 97 97
41 41 41 42 43 45 48 51 55 58 62 65 68 71 72 74 76 79 78 79 79 80 81 82 83 85 86 87 89 90 91 93 94 95 96 96 97 97 97 98 100 101 101
40 41 42 43 46 49 53 56 60 64 67 70 72 74 76 78 80 81 82 83 83 83 85 86 88 90 92 94 96 97 98 99 99 99 98 98 97 97 97 97 98 99 100
41 42 44 47 51 55 58 61 65 68 70 73 75 77 78 80 83 85 87 88 88 87 89 90 93 96 98 100 101 102 102 102 100 99 97 95 93 92 91 90 90 90 92
43 45 49 53 56 60 63 66 68 71 73 75 77 79 80 82 85 87 90 93 94 94 94 95 98 100 102 103 103 102 101 98 95 93 90 88 86 85 84 84 84 85 85
47 50 54 57 60 63 66 69 72 74 76 77 79 81 83 85 87 90 93 97 101 104 102 101 102 101 101 101 99 97 94 90 87 84 83 81 79 77 76 76 77 79 81
51 55 58 61 65 68 71 73 74 76 77 79 81 83 85 88 91 95 98 101 105 108 109 104 102 99 96 94 91 89 86 83 80 78 75 73 72 70 69 68 68 71 75
55 59 62 66 69 72 74 75 75 76 78 80 83 87 90 94 97 100 103 104 105 105 106 102 96 91 87 84 81 80 80 77 74 71 69 67 66 65 64 64 64 66 69
60 63 67 70 73 74 74 74 75 77 80 84 88 92 96 99 102 103 104 103 101 99 98 96 89 84 80 78 75 72 70 69 67 66 64 63 62 62 62 62 63 63 66
64 68 71 72 73 72 73 74 77 81 85 90 94 98 101 103 103 102 99 96 94 92 90 89 84 80 76 72 69 65 63 61 61 61 60 59 60 61 61 61 61 61 62
68 70 71 71 71 72 74 78 82 86 91 95 99 102 103 102 99 96 92 89 87 86 84 83 81 76 71 66 63 61 57 54 53 54 54 55 56 56 56 57 57 57 58
69 69 69 69 71 75 79 84 88 93 97 100 102 102 100 95 90 87 85 83 83 82 81 80 76 71 65 60 57 55 52 47 44 47 49 47 49 49 49 50 51 51 52
67 66 68 71 75 80 85 90 95 98 101 103 102 98 92 86 82 79 79 79 79 80 79 75 70 65 59 56 53 49 46 43 37 38 42 38 40 40 40 41 42 43 45
65 67 70 75 80 85 90 95 99 102 103 102 97 90 83 78 77 76 76 76 75 74 71 68 63 58 54 51 47 43 40 37 33 32 33 28 30 31 32 33 34 35 38
66 70 75 80 85 90 95 99 102 103 100 94 87 81 77 75 75 77 76 74 71 65 61 58 55 51 48 45 42 39 36 30 25 25 29 25 23 25 26 27 28 29 29
70 75 80 85 89 94 99 102 104 101 93 85 79 76 76 76 76 76 74 69 61 55 50 48 46 44 43 42 41 37 32 27 20 19 24 24 20 18 18 20 21 21 20
75 80 84 89 94 98 101 103 101 95 87 81 76 74 74 74 72 69 65 58 51 45 42 39 37 37 37 37 36 35 32 26 19 16 20 20 17 15 13 15 15 12 11
Wind_Direction
295 295 295 295 295 293 292 292 292 291 291 290 290 290 290 290 290 290 291 291 291 291 291 291 291 290 290 289 289 289 288 287 286 284 283 282 280 278 277 276 274 274 273
292 293 295 296 296 296 295 295 294 292 291 291 291 291 291 291 292 292 292 291 291 290 290 291 291 291 290 289 289 288 288 287 286 285 284 283 281 280 278 276 274 273 271
290 292 294 296 298 298 298 297 296 295 294 294 293 292 292 292 291 290 290 290 290 289 289 289 290 290 289 289 288 288 287 287 286 285 284 283 281 280 278 276 275 273 271
289 291 294 296 298 299 298 298 297 296 295 294 292 291 291 290 289 289 289 289 289 289 290 290 290 290 289 289 288 288 287 286 285 284 283 282 281 279 278 276 274 272 271
289 291 294 296 297 297 297 296 296 295 294 293 292 291 291 290 289 289 291 291 291 291 291 292 291 291 290 289 289 288 287 285 283 282 281 280 279 278 277 275 274 272 270
292 294 295 296 297 296 296 296 296 295 294 293 292 292 291 291 291 291 292 292 292 292 292 292 292 291 290 289 288 287 286 285 284 283 281 279 277 276 274 273 273 272 270
295 296 298 298 298 298 298 298 297 297 296 296 295 295 295 295 294 294 293 293 293 293 292 292 291 291 290 289 288 287 285 284 282 282 280 279 277 275 273 271 270 269 268
297 298 299 300 301 301 301 301 301 301 301 300 298 296 294 293 292 293 293 292 292 292 292 291 291 290 289 289 288 287 285 283 281 280 278 277 276 274 272 270 268 266 265
297 299 300 301 302 303 303 304 303 302 301 299 298 297 296 294 292 292 292 292 292 292 292 291 290 290 289 289 287 286 285 283 282 280 278 276 274 273 271 269 267 264 262
299 300 301 302 303 304 303 302 301 300 299 298 298 298 298 297 296 295 294 294 294 294 293 293 292 292 291 290 288 287 285 284 283 281 280 277 275 272 269 267 265 263 261
300 301 302 302 302 301 301 301 301 300 300 299 299 299 298 298 297 297 296 296 296 296 296 295 295 294 293 292 291 290 289 288 286 284 282 279 276 273 269 265 262 260 258
300 300 300 300 300 300 300 301 301 301 301 300 300 300 300 300 299 299 298 297 297 297 297 297 297 297 296 295 294 293 292 291 289 286 283 281 277 274 270 266 262 259 256
298 298 299 299 300 301 301 302 302 302 302 302 302 302 302 302 301 301 300 300 299 299 299 299 299 299 298 297 296 295 293 292 289 287 284 281 278 274 271 268 264 260 256
297 298 299 300 301 302 303 303 304 303 303 303 304 304 304 304 304 303 303 302 301 301 300 300 300 299 299 298 297 295 293 291 288 286 283 281 278 274 271 268 264 260 256
297 299 301 302 304 304 305 305 305 305 306 306 306 306 306 306 305 305 305 304 304 303 302 301 300 300 299 298 297 295 293 291 288 286 284 281 278 275 272 269 264 260 256
300 302 304 305 306 307 307 307 308 308 308 308 308 308 308 307 307 306 306 305 304 303 303 302 302 301 300 298 297 295 293 291 289 287 285 282 279 276 273 269 265 260 255
303 305 307 308 309 309 310 310 310 310 310 310 310 309 309 309 308 307 306 306 305 304 303 303 303 302 300 298 296 295 293 291 289 287 284 282 279 277 273 269 265 261 255
307 308 310 311 311 311 311 311 312 312 312 312 311 311 310 309 309 308 307 306 305 304 304 305 305 304 302 300 298 295 292 290 288 286 284 282 279 276 274 271 267 262 257
310 311 312 313 313 313 313 313 313 313 313 313 312 312 311 310 309 308 307 306 305 305 306 306 306 306 304 302 299 296 293 290 288 287 285 282 280 277 275 272 268 263 258
312 313 314 314 314 314 315 315 315 314 314 314 313 313 312 311 309 308 307 307 306 307 307 307 307 307 306 304 301 298 295 292 290 288 285 284 281 278 276 273 269 264 258
313 314 315 315 316 316 316 315 315 315 315 314 314 313 312 311 309 308 308 308 308 309 309 308 309 308 308 305 303 301 299 296 294 290 286 285 283 282 279 276 272 265 258
314 315 315 316 316 316 316 316 316 316 316 315 314 313 312 310 309 309 309 309 309 310 309 309 310 310 309 307 305 304 303 302 298 290 288 288 286 285 283 279 274 266 257
314 315 316 316 317 317 317 317 317 317 317 316 315 314 312 311 310 310 309 309 309 309 309 309 310 310 309 308 307 308 308 309 306 298 293 293 289 290 288 285 279 269 258
315 316 316 317 317 317 317 317 317 318 318 317 316 314 313 313 312 311 310 310 310 310 310 310 311 311 311 311 311 313 315 314 311 304 300 301 297 295 293 289 283 274 260
315 316 317 317 317 318 318 319 319 319 318 317 316 315 315 314 313 312 311 311 312 312 312 313 312 312 313 314 315 317 319 322 317 304 301 306 309 305 301 297 291 282 262
316 316 317 318 318 319 320 320 320 319 318 317 317 316 316 315 314 313 312 313 314 315 315 315 313 312 313 315 316 318 321 322 320 307 300 307 313 314 312 307 305 295 260
Height
5800 5798 5797 5795 5793 5791 5789 5786 5784 5781 5779 5777 5774 5772 5770 5768 5766 5764 5762 5760 5758 5756 5754 5751 5750 5748 5747 5745 5743 5741 5739 5738 5737 5735 5734 5733 5732 5731 5730 5729 5728 5728 5728
5794 5792 5791 5789 5786 5784 5781 5778 5776 5773 5771 5768 5766 5764 5762 5760 5758 5756 5753 5751 5749 5747 5745 5742 5740 5737 5735 5734 5731 5729 5727 5725 5723 5722 5720 5719 5718 5717 5716 5716 5715 5714 5714
5788 5786 5784 5781 5779 5776 5773 5770 5767 5765 5762 5760 5758 5756 5753 5751 5749 5746 5744 5741 5739 5737 5734 5732 5729 5726 5723 5721 5718 5716 5714 5711 5709 5707 5705 5704 5703 5702 5701 5701 5700 5700 5700
5781 5779 5777 5774 5771 5768 5765 5762 5759 5757 5754 5752 5750 5747 5744 5742 5739 5736 5733 5731 5728 5725 5722 5719 5716 5713 5710 5706 5703 5701 5698 5696 5693 5691 5689 5687 5686 5685 5684 5684 5684 5684 5684
5775 5772 5770 5766 5763 5760 5757 5754 5751 5748 5745 5743 5740 5738 5735 5732 5729 5726 5723 5720 5716 5712 5709 5705 5701 5698 5694 5690 5687 5683 5680 5678 5675 5673 5671 5669 5668 5666 5665 5665 5665 5666 5666
5768 5765 5762 5759 5755 5752 5749 5745 5742 5739 5735 5733 5730 5728 5725 5721 5717 5714 5711 5707 5703 5699 5694 5690 5685 5681 5677 5673 5669 5665 5661 5657 5654 5652 5650 5649 5648 5647 5646 5645 5645 5645 5646
5760 5758 5755 5751 5747 5744 5740 5737 5733 5729 5725 5722 5719 5717 5714 5710 5706 5702 5697 5693 5689 5684 5679 5674 5668 5663 5658 5653 5648 5644 5640 5636 5633 5629 5627 5625 5624 5624 5624 5624 5624 5624 5625
5753 5750 5746 5742 5739 5735 5731 5727 5723 5719 5715 5710 5706 5703 5702 5700 5695 5690 5684 5678 5673 5668 5662 5656 5650 5644 5638 5632 5627 5621 5616 5612 5609 5606 5603 5600 5598 5597 5597 5598 5599 5600 5601
5745 5741 5737 5733 5729 5725 5721 5716 5712 5708 5704 5699 5693 5687 5683 5680 5678 5677 5670 5663 5656 5650 5644 5637 5631 5624 5617 5610 5604 5597 5591 5586 5582 5579 5577 5574 5571 5569 5567 5567 5568 5570 5572
5736 5732 5729 5724 5720 5716 5711 5707 5702 5697 5692 5687 5681 5674 5666 5659 5653 5651 5649 5643 5636 5629 5622 5615 5608 5600 5592 5585 5578 5571 5565 5559 5554 5550 5546 5543 5540 5538 5536 5535 5534 5535 5538
5728 5723 5719 5715 5711 5706 5702 5696 5691 5685 5678 5671 5665 5658 5652 5644 5635 5628 5625 5620 5613 5606 5598 5590 5582 5573 5564 5555 5547 5540 5533 5527 5521 5516 5511 5507 5503 5500 5499 5498 5499 5500 5502
5719 5715 5711 5706 5702 5697 5691 5685 5678 5671 5664 5656 5648 5640 5632 5624 5615 5607 5601 5597 5591 5584 5574 5565 5554 5544 5534 5524 5514 5506 5497 5490 5484 5477 5472 5467 5463 5460 5458 5458 5460 5463 5467
5710 5706 5702 5697 5691 5685 5679 5672 5664 5656 5648 5640 5631 5622 5613 5603 5594 5584 5575 5569 5565 5561 5551 5541 5527 5515 5503 5490 5480 5469 5461 5452 5445 5438 5433 5429 5425 5421 5419 5420 5422 5426 5431
5701 5696 5691 5685 5679 5672 5664 5657 5649 5641 5632 5623 5614 5604 5594 5584 5573 5562 5551 5540 5534 5532 5526 5516 5502 5487 5472 5458 5446 5434 5425 5417 5410 5403 5397 5393 5389 5387 5385 5386 5388 5391 5396
5691 5685 5679 5672 5665 5658 5650 5642 5633 5624 5615 5605 5595 5585 5575 5564 5553 5540 5527 5513 5499 5492 5494 5487 5473 5459 5443 5427 5413 5400 5391 5384 5377 5371 5365 5360 5357 5355 5354 5354 5356 5359 5363
5680 5673 5666 5659 5651 5643 5634 5626 5616 5606 5597 5586 5576 5566 5555 5543 5531 5517 5503 5488 5471 5455 5450 5452 5440 5429 5414 5398 5384 5370 5360 5353 5347 5341 5336 5332 5329 5327 5327 5327 5328 5330 5334
5667 5660 5652 5644 5635 5626 5617 5608 5599 5589 5579 5568 5557 5545 5533 5519 5506 5492 5477 5461 5445 5426 5411 5412 5407 5397 5385 5372 5361 5348 5335 5326 5321 5315 5310 5306 5303 5301 5300 5301 5302 5303 5306
5654 5646 5637 5628 5619 5609 5600 5591 5582 5571 5560 5549 5536 5523 5509 5494 5480 5464 5448 5432 5417 5401 5384 5374 5375 5366 5357 5345 5335 5325 5315 5305 5298 5293 5287 5283 5279 5277 5276 5275 5276 5278 5281
5640 5631 5621 5612 5602 5593 5583 5574 5564 5553 5541 5528 5513 5499 5484 5467 5452 5436 5420 5405 5390 5377 5363 5349 5344 5338 5329 5319 5308 5301 5293 5285 5278 5271 5265 5261 5257 5253 5252 5251 5251 5253 5255
5625 5616 5606 5596 5586 5576 5566 5556 5546 5534 5521 5506 5490 5474 5457 5439 5423 5408 5394 5381 5367 5355 5343 5330 5321 5313 5305 5296 5285 5277 5273 5268 5260 5251 5245 5240 5235 5232 5230 5228 5227 5228 5231
5610 5600 5591 5581 5570 5560 5549 5537 5526 5513 5498 5483 5466 5449 5431 5414 5398 5384 5370 5358 5346 5333 5321 5310 5300 5291 5283 5274 5266 5258 5252 5249 5244 5233 5226 5224 5217 5214 5211 5207 5206 5206 5208
5596 5586 5576 5566 5555 5543 5530 5517 5503 5490 5474 5457 5442 5426 5409 5393 5379 5366 5353 5340 5327 5313 5300 5289 5281 5272 5265 5256 5249 5242 5235 5231 5228 5221 5210 5210 5203 5199 5195 5192 5189 5187 5188
5582 5573 5562 5551 5539 5525 5511 5496 5481 5467 5450 5432 5415 5401 5387 5374 5359 5347 5336 5325 5313 5299 5285 5273 5264 5257 5249 5242 5234 5230 5223 5217 5212 5206 5199 5198 5193 5188 5184 5179 5176 5173 5173
5569 5558 5547 5535 5521 5506 5490 5475 5459 5443 5426 5409 5393 5379 5366 5355 5341 5327 5315 5305 5295 5283 5271 5261 5252 5244 5236 5229 5222 5217 5212 5207 5203 5197 5190 5187 5185 5181 5176 5171 5166 5163 5162
5555 5543 5531 5517 5504 5488 5470 5452 5434 5419 5404 5390 5376 5362 5347 5334 5322 5307 5295 5285 5277 5269 5260 5251 5242 5234 5227 5220 5213 5207 5203 5199 5196 5192 5185 5180 5178 5174 5170 5165 5160 5157 5156
5540 5527 5514 5499 5484 5468 5449 5430 5410 5395 5383 5372 5360 5347 5332 5316 5303 5290 5279 5270 5263 5257 5251 5244 5236 5228 5220 5214 5207 5200 5195 5192 5189 5186 5181 5175 5173 5169 5167 5163 5158 5154 5154